Temperature
18 18 18 18 18 18 18 18 18 18 18 18 18 18 18 18 18 18 18 18 18 18 18 18 18 18 18 18 18 18 18 18 18 18 18 18 18 18 18 18 17 17 17
18 17 18 18 18 18 18 18 18 18 18 18 18 18 18 18 18 18 18 18 18 18 18 18 18 18 18 18 18 18 18 18 18 18 18 18 18 17 17 17 17 17 17
18 18 17 18 18 18 18 18 18 18 18 18 18 18 18 18 18 18 17 17 17 17 17 18 18 18 18 18 18 18 18 18 18 17 17 17 17 17 17 17 17 17 17
18 18 17 18 18 18 18 18 18 18 18 18 18 18 18 17 18 18 17 17 17 17 17 18 17 17 17 17 17 17 17 17 17 17 17 17 17 17 17 17 17 17 17
18 17 17 18 18 18 18 18 18 18 18 18 18 18 18 18 18 18 17 17 17 17 17 17 17 17 17 17 17 17 17 17 17 17 17 17 17 17 17 17 17 17 17
18 18 17 18 18 18 18 18 18 18 18 18 18 18 18 17 17 17 17 17 17 17 17 17 17 17 17 17 17 17 17 17 17 17 16 16 17 17 17 17 17 17 17
18 18 17 18 18 18 18 18 18 18 18 18 17 17 17 17 17 17 17 17 17 17 17 17 17 17 17 17 17 17 17 17 17 17 16 16 17 17 17 17 17 17 17
19 18 18 18 18 18 18 18 18 18 18 18 17 17 17 17 17 17 17 17 17 17 17 17 17 17 17 17 17 17 17 17 17 17 16 16 17 17 17 17 17 17 17
19 18 18 18 18 18 18 18 18 18 18 18 17 17 17 17 17 17 17 17 17 17 17 17 17 17 17 17 17 17 17 17 17 17 17 17 17 17 17 17 17 17 17
19 18 18 18 18 17 17 18 18 18 18 18 17 17 17 17 17 17 17 17 17 17 17 17 17 17 17 17 17 17 17 17 17 17 17 17 17 17 17 17 17 17 17
18 18 18 18 18 18 17 17 17 18 18 17 17 17 17 17 17 17 17 17 17 17 17 17 17 17 17 17 17 17 17 17 17 17 17 17 17 17 17 17 17 17 17
18 18 18 18 18 18 18 17 17 17 17 17 17 17 17 17 17 17 17 17 17 17 17 17 17 17 17 17 17 17 17 17 17 17 17 17 17 17 17 17 17 17 17
19 18 18 18 17 18 18 17 17 17 17 17 17 17 17 17 17 17 17 17 17 17 17 17 17 17 17 17 17 17 17 17 17 17 17 17 17 17 17 17 17 17 16
19 18 18 18 17 17 18 18 17 17 17 17 17 17 17 17 17 17 17 17 17 17 17 17 17 17 17 17 17 17 17 17 17 17 17 17 17 17 17 17 17 17 17
19 18 18 18 18 18 18 18 17 17 17 17 17 17 17 17 17 17 17 17 17 17 17 17 17 17 17 17 17 17 17 17 17 17 17 17 17 17 17 17 17 17 17
19 18 18 18 18 18 18 17 17 17 17 17 17 17 17 17 17 17 17 17 17 17 17 17 17 17 17 17 17 17 17 17 17 17 17 17 17 17 17 17 17 17 17
19 18 18 18 18 18 17 17 17 17 17 17 17 17 17 17 17 17 17 17 17 17 17 17 17 17 17 17 17 17 17 17 17 17 17 17 17 17 17 17 17 17 16
19 18 18 18 18 17 17 17 17 18 17 17 17 17 17 17 17 17 17 17 17 17 17 17 17 17 17 17 17 17 17 17 17 17 17 17 17 17 17 17 17 17 16
19 18 18 18 18 17 17 17 17 17 17 17 17 17 17 17 17 17 17 17 17 17 17 17 17 17 17 17 17 17 17 17 17 17 17 17 17 17 17 17 17 17 16
19 18 18 18 18 17 17 17 17 17 17 17 17 17 17 17 17 17 17 17 17 17 17 17 17 17 17 17 17 17 17 17 17 17 17 17 17 17 16 16 16 16 16
19 18 18 18 18 18 17 17 17 17 17 17 17 17 17 17 17 17 17 17 17 17 17 17 17 17 17 17 17 17 17 17 17 17 17 17 17 17 16 16 16 16 16
19 19 18 18 18 18 18 18 17 17 17 17 17 17 17 17 17 17 17 17 17 17 17 17 17 17 17 17 17 17 17 17 17 17 17 16 16 16 16 16 16 16 16
20 19 19 19 18 18 18 17 17 17 17 17 17 17 17 17 17 17 17 17 17 17 17 17 17 17 17 17 17 17 18 18 17 17 16 16 16 16 16 16 16 16 15
20 20 19 19 19 18 18 18 18 18 18 18 17 17 17 18 18 18 18 17 17 17 17 17 17 17 17 17 17 17 17 17 17 17 16 16 16 16 16 16 15 15 15
21 20 19 19 19 19 19 18 18 18 18 18 17 18 17 18 18 18 18 18 18 17 17 17 17 17 17 17 17 17 17 17 17 17 16 16 16 15 15 15 15 15 15
21 20 20 20 20 19 19 19 18 18 18 18 18 18 18 18 18 18 18 18 17 17 17 17 17 17 17 17 17 17 17 17 17 17 17 16 16 15 15 15 15 15 15
Wind_Speed
5 7 9 7 8 9 9 9 9 10 11 11 12 12 13 13 14 14 16 17 18 18 20 21 21 20 20 19 19 20 20 20 20 20 19 18 17 17 17 16 15 16 18
6 8 9 8 8 9 9 10 10 10 10 11 12 12 14 14 15 16 17 18 18 19 20 20 20 20 19 18 18 19 19 19 19 19 18 17 16 16 15 13 11 15 16
6 8 9 8 8 9 9 9 10 10 10 12 13 13 14 15 15 16 17 18 18 18 19 19 20 19 18 18 18 18 18 18 18 16 14 14 15 15 14 13 14 16 15
6 8 9 8 7 8 9 9 10 10 11 12 13 13 13 14 15 15 17 17 18 19 19 19 19 18 18 18 17 17 17 17 16 13 11 12 13 15 13 13 13 14 14
7 7 10 7 7 8 8 9 10 11 11 12 13 12 12 13 14 15 17 17 18 18 18 18 18 17 17 17 16 16 15 15 13 10 11 11 11 14 13 12 12 12 13
7 8 11 6 7 7 8 9 10 11 11 12 13 12 13 13 13 14 16 16 17 17 17 17 16 16 15 14 14 14 14 13 11 10 10 10 11 13 12 12 12 11 12
7 8 10 7 7 7 8 9 10 11 11 12 13 13 13 14 14 14 15 15 16 16 16 15 15 14 14 13 12 12 12 9 8 9 9 9 11 13 12 11 11 11 11
7 8 10 9 7 8 8 9 9 10 11 12 13 13 13 14 13 13 13 14 14 14 14 14 13 13 13 12 11 11 9 6 8 8 8 9 12 12 11 11 11 11 10
6 7 7 8 9 9 8 9 9 10 11 12 12 12 13 13 12 12 12 12 12 12 13 12 12 11 11 11 10 10 7 4 5 7 8 9 11 11 11 10 10 10 10
6 6 5 6 7 8 10 10 9 10 11 11 11 11 11 12 12 11 12 12 12 12 12 11 11 10 10 10 10 9 8 6 6 7 6 9 11 10 10 9 9 9 9
5 4 4 5 6 7 8 10 9 9 9 10 10 10 8 8 10 10 12 12 11 11 11 11 10 10 10 11 10 9 7 4 5 5 6 10 10 9 9 9 9 9 9
5 4 4 4 5 5 6 7 6 7 8 7 7 7 7 7 7 9 12 11 10 10 10 10 9 9 7 9 10 8 4 4 4 5 8 10 8 8 9 9 9 8 8
4 4 4 4 4 4 4 5 5 5 6 6 7 6 6 6 7 8 8 9 9 8 8 9 7 5 6 5 4 5 4 3 3 5 8 9 8 8 8 8 8 8 8
4 4 4 5 4 3 3 4 4 4 4 5 6 5 5 4 4 5 5 6 6 5 5 5 4 5 5 4 4 4 4 3 3 4 7 9 8 7 7 7 8 8 8
4 4 4 4 4 4 3 2 4 4 3 5 4 4 4 4 4 5 4 4 5 5 5 4 4 4 3 3 3 3 3 3 3 3 6 9 8 7 7 7 7 8 8
4 4 4 4 4 4 3 2 2 3 3 3 4 4 3 4 4 4 4 4 4 4 4 4 4 4 3 3 2 2 2 2 3 2 4 8 9 8 7 7 7 7 7
4 4 4 4 4 4 3 3 3 3 4 3 4 4 3 4 4 4 4 3 4 4 4 4 3 3 3 3 3 2 2 2 2 2 2 3 7 9 8 7 7 7 7
4 5 4 3 5 4 3 2 2 2 3 3 3 3 3 3 4 3 3 3 4 3 3 3 3 2 2 2 2 1 1 2 2 2 3 3 3 4 7 7 7 7 7
5 5 5 4 4 4 4 3 2 2 2 2 3 3 3 3 3 3 2 3 3 3 3 3 3 2 2 2 2 2 1 2 2 2 2 2 3 3 4 7 7 6 7
5 5 5 5 4 4 4 3 2 2 2 2 2 2 2 3 3 3 3 3 3 3 3 2 2 2 2 2 1 1 0 1 1 1 2 2 2 3 3 3 4 5 6
6 6 6 5 5 4 3 3 3 3 2 2 3 3 3 3 4 3 2 4 3 2 2 3 3 4 3 2 2 1 1 1 1 1 1 1 1 1 1 1 2 2 4
7 7 7 7 6 5 4 3 2 2 2 2 2 3 3 3 3 4 3 3 3 3 3 3 3 2 3 3 2 2 2 2 2 2 2 2 1 1 1 1 1 1 0
8 8 7 7 6 6 5 4 3 3 3 3 3 3 3 3 3 2 2 2 2 3 3 3 4 4 3 3 3 2 2 1 1 2 2 2 1 1 1 2 2 2 1
9 8 8 7 7 6 6 5 5 4 3 3 2 2 3 3 3 3 3 3 3 3 3 4 4 4 4 4 3 2 2 1 2 2 2 2 1 1 1 1 2 2 2
9 9 8 8 7 7 6 5 5 4 3 3 3 3 2 2 3 3 3 3 3 3 3 3 2 4 4 4 3 3 2 3 3 2 2 2 1 1 1 1 1 1 2
10 9 9 8 8 7 7 6 6 4 4 3 4 3 3 3 2 3 3 2 3 2 2 3 3 4 4 3 3 3 3 3 3 2 2 2 2 1 1 1 1 0 1
Wind_Direction
71 71 70 58 61 63 67 72 78 83 87 90 90 93 95 95 95 98 106 109 112 116 117 116 117 120 122 122 123 122 122 121 120 120 121 121 119 119 119 122 123 115 115
83 81 83 62 62 65 68 70 76 83 86 90 90 92 93 96 97 99 104 106 109 113 114 116 118 120 121 123 123 124 125 123 121 123 125 124 122 120 120 117 109 114 121
89 90 90 72 65 66 69 72 83 84 88 91 91 94 96 99 100 99 104 104 106 110 114 116 117 120 120 122 125 126 126 125 125 128 137 129 124 122 120 116 115 121 122
88 89 81 80 72 71 75 77 83 87 91 91 91 95 98 100 101 102 104 104 106 107 110 112 114 117 118 119 122 123 125 128 131 142 134 122 125 122 123 123 125 126 127
90 89 88 81 78 76 78 83 88 91 93 93 94 96 99 101 102 104 107 108 109 110 110 110 113 116 119 121 123 124 125 128 138 145 122 121 120 125 129 130 131 132 132
102 95 91 81 79 79 83 87 91 94 96 96 97 99 102 104 103 110 110 111 113 114 114 114 115 118 120 123 125 127 127 132 150 126 124 129 126 130 133 135 136 135 134
99 94 95 86 80 82 89 92 94 96 98 99 98 102 104 102 99 106 110 111 113 114 114 114 114 116 118 121 122 125 132 143 132 123 125 125 125 133 139 141 139 136 136
101 97 98 102 88 88 94 96 96 98 100 100 98 101 105 105 104 105 109 112 112 113 113 113 115 118 122 124 123 126 134 155 135 127 126 123 128 138 142 145 144 142 140
96 96 102 112 113 112 100 95 97 100 100 99 98 100 105 106 106 105 108 113 115 114 113 113 114 117 122 126 129 132 137 159 141 133 133 128 135 144 145 148 149 149 148
98 93 95 95 104 115 113 104 100 100 102 103 104 107 111 113 113 114 115 112 116 114 113 113 112 113 118 125 130 135 148 182 147 140 131 129 140 149 152 156 157 155 155
101 93 91 96 103 109 110 114 119 116 112 120 116 117 127 118 115 119 106 110 113 114 116 113 113 116 123 127 130 139 170 159 136 127 123 124 148 160 164 164 164 162 162
120 114 102 96 100 107 109 116 120 117 113 111 110 119 119 112 111 112 114 115 116 117 121 121 128 144 156 134 137 163 151 135 131 133 125 135 157 169 169 167 167 167 169
124 116 113 107 110 113 114 118 108 109 112 115 111 118 116 122 124 124 125 127 130 139 132 136 155 140 124 114 131 135 130 130 120 124 130 145 162 168 169 172 177 179 181
123 116 109 112 111 108 110 115 124 123 122 117 117 122 124 123 120 119 129 128 136 134 132 140 128 120 118 122 122 124 138 139 122 116 129 147 162 170 175 178 182 186 186
138 135 123 117 119 127 129 137 120 118 118 120 119 121 131 134 127 125 122 128 132 132 142 136 120 121 127 135 137 136 133 135 134 143 139 151 164 174 180 183 187 190 191
153 146 134 135 132 133 138 136 125 131 134 125 127 122 136 125 124 132 139 137 134 134 129 136 135 138 141 131 136 126 138 135 120 143 150 159 171 180 185 188 194 195 197
158 153 150 151 140 136 136 138 133 138 128 121 116 125 132 128 129 144 139 149 134 134 141 148 142 151 154 150 148 146 156 139 129 136 148 162 168 174 181 190 198 203 205
163 160 167 161 146 146 137 128 125 115 112 124 129 129 130 129 142 153 141 140 140 159 161 156 172 161 149 154 156 165 146 153 165 169 172 167 165 166 173 185 197 206 211
173 170 170 166 161 160 152 153 147 129 127 132 130 130 133 144 155 165 148 138 171 170 175 189 156 175 159 157 170 163 184 173 170 173 161 175 167 177 170 166 186 202 212
178 178 177 175 170 171 167 163 164 160 166 150 141 140 149 152 162 164 155 156 177 172 175 172 158 175 184 186 193 106 143 184 190 169 192 185 182 187 189 177 186 184 191
180 181 182 183 174 181 181 187 173 169 169 156 152 147 160 166 160 172 169 153 180 177 182 174 179 178 184 169 179 161 150 139 134 147 143 136 141 149 176 180 212 194 176
185 186 187 188 184 189 180 183 178 166 166 156 144 137 162 174 177 173 173 184 178 180 185 182 186 209 197 191 206 208 195 164 132 106 124 135 110 117 137 125 81 52 281
189 191 191 187 185 190 183 182 173 172 185 166 158 155 163 170 171 173 181 200 191 208 197 200 203 211 214 207 221 240 233 185 151 142 131 114 109 88 120 113 103 79 57
190 187 186 183 185 184 188 194 192 188 179 161 167 150 156 168 179 184 192 201 208 214 206 215 203 217 223 217 202 235 261 248 226 177 162 142 127 130 137 123 97 87 68
187 184 180 181 182 183 187 184 194 199 188 173 169 160 178 171 186 188 189 195 207 217 215 227 213 226 225 236 228 213 203 199 227 237 208 187 175 159 130 129 97 87 84
184 182 179 178 184 183 186 186 192 193 194 185 184 181 185 176 182 178 188 199 214 226 222 220 222 220 229 233 238 230 229 227 220 224 224 213 196 156 147 137 156 135 110
Height
1524 1523 1520 1519 1519 1518 1517 1516 1516 1515 1515 1515 1515 1515 1514 1514 1514 1514 1514 1515 1516 1517 1519 1521 1523 1526 1529 1532 1535 1538 1541 1544 1546 1548 1550 1553 1554 1556 1558 1559 1560 1561 1562
1525 1524 1521 1521 1520 1519 1519 1518 1518 1517 1517 1517 1517 1517 1517 1517 1517 1517 1517 1518 1519 1520 1522 1525 1527 1529 1532 1535 1537 1540 1543 1546 1548 1550 1552 1555 1556 1558 1559 1561 1562 1563 1564
1526 1525 1524 1522 1522 1521 1521 1520 1519 1519 1518 1518 1518 1519 1519 1519 1520 1520 1521 1521 1522 1523 1525 1527 1530 1532 1534 1536 1540 1543 1545 1548 1550 1553 1555 1557 1558 1559 1561 1562 1563 1564 1566
1527 1527 1525 1524 1523 1523 1522 1522 1521 1520 1520 1520 1521 1521 1522 1522 1523 1523 1523 1524 1525 1527 1529 1531 1533 1535 1537 1540 1543 1545 1548 1550 1552 1555 1558 1559 1560 1561 1562 1564 1565 1566 1567
1528 1528 1526 1525 1525 1524 1524 1523 1523 1522 1522 1522 1523 1523 1524 1525 1525 1526 1527 1528 1529 1531 1533 1535 1537 1539 1541 1543 1546 1548 1550 1551 1554 1557 1559 1560 1562 1562 1564 1565 1566 1567 1568
1530 1530 1528 1527 1526 1525 1525 1525 1525 1525 1525 1525 1525 1526 1526 1527 1528 1529 1530 1532 1533 1535 1536 1538 1540 1543 1545 1546 1548 1550 1552 1553 1556 1559 1560 1562 1563 1564 1565 1566 1567 1569 1570
1532 1532 1530 1528 1527 1527 1526 1527 1527 1527 1527 1527 1528 1528 1529 1530 1531 1532 1533 1535 1537 1538 1539 1541 1544 1545 1547 1549 1551 1552 1553 1556 1559 1561 1562 1564 1564 1565 1566 1567 1569 1570 1571
1534 1533 1531 1529 1529 1528 1528 1528 1528 1529 1529 1530 1530 1530 1531 1533 1534 1535 1537 1538 1540 1541 1543 1545 1547 1548 1550 1552 1553 1554 1556 1558 1561 1563 1564 1565 1565 1566 1567 1569 1570 1571 1572
1535 1535 1534 1533 1531 1530 1530 1530 1530 1530 1531 1532 1533 1534 1535 1536 1537 1539 1540 1541 1542 1544 1546 1548 1549 1551 1552 1554 1555 1557 1558 1559 1563 1564 1565 1566 1566 1567 1568 1569 1571 1572 1573
1536 1536 1535 1535 1534 1534 1533 1532 1532 1533 1533 1534 1535 1536 1538 1539 1540 1541 1542 1543 1544 1546 1548 1550 1552 1553 1554 1555 1557 1558 1560 1561 1564 1565 1566 1566 1567 1568 1569 1570 1571 1572 1573
1537 1537 1537 1536 1536 1536 1536 1535 1535 1535 1536 1537 1538 1539 1541 1543 1544 1545 1545 1546 1547 1549 1551 1552 1554 1555 1556 1557 1559 1560 1561 1564 1565 1566 1567 1567 1568 1569 1570 1571 1572 1573 1574
1538 1538 1537 1537 1537 1538 1538 1538 1538 1539 1539 1540 1541 1542 1544 1544 1546 1547 1548 1549 1550 1552 1553 1554 1556 1557 1559 1560 1561 1561 1564 1565 1566 1567 1567 1567 1568 1569 1570 1571 1572 1573 1574
1540 1539 1539 1539 1538 1539 1539 1540 1540 1541 1542 1543 1543 1544 1545 1547 1548 1549 1551 1552 1553 1554 1556 1556 1558 1560 1561 1562 1563 1564 1565 1566 1567 1568 1567 1567 1568 1569 1570 1571 1572 1573 1573
1540 1540 1541 1540 1539 1539 1540 1542 1542 1543 1544 1545 1545 1546 1547 1548 1549 1551 1552 1554 1555 1556 1557 1559 1560 1561 1562 1563 1564 1565 1565 1566 1567 1567 1567 1567 1568 1569 1569 1571 1571 1572 1573
1541 1541 1541 1540 1540 1540 1541 1542 1544 1544 1546 1546 1547 1547 1548 1550 1551 1552 1553 1554 1556 1557 1558 1559 1560 1561 1562 1563 1564 1565 1566 1567 1567 1568 1568 1567 1568 1568 1569 1570 1571 1572 1573
1541 1542 1542 1541 1541 1541 1541 1542 1544 1545 1546 1548 1548 1549 1550 1551 1552 1553 1554 1555 1557 1558 1559 1560 1561 1562 1562 1564 1564 1565 1566 1566 1566 1567 1568 1568 1568 1568 1569 1570 1570 1571 1572
1542 1542 1542 1542 1542 1542 1543 1544 1545 1546 1547 1548 1549 1550 1550 1552 1552 1553 1555 1556 1557 1558 1559 1560 1561 1562 1563 1564 1564 1565 1565 1566 1566 1566 1567 1568 1568 1568 1568 1569 1570 1570 1571
1541 1542 1542 1543 1543 1543 1544 1544 1546 1547 1548 1549 1550 1550 1551 1552 1552 1554 1555 1556 1557 1558 1559 1560 1561 1562 1563 1563 1564 1565 1565 1565 1565 1566 1567 1567 1567 1568 1568 1568 1569 1569 1569
1541 1542 1542 1543 1543 1544 1544 1545 1546 1547 1547 1549 1550 1551 1551 1552 1553 1554 1555 1556 1557 1558 1559 1560 1561 1561 1562 1563 1563 1564 1564 1565 1565 1565 1566 1566 1566 1567 1567 1567 1567 1568 1568
1540 1541 1542 1542 1543 1544 1545 1545 1546 1547 1548 1548 1549 1550 1551 1552 1552 1554 1555 1555 1556 1557 1558 1559 1559 1560 1561 1561 1563 1563 1563 1564 1564 1564 1565 1565 1565 1566 1566 1566 1566 1566 1566
1540 1540 1541 1542 1542 1543 1545 1546 1546 1548 1548 1549 1549 1550 1550 1551 1552 1553 1554 1555 1555 1557 1557 1558 1558 1559 1560 1560 1561 1562 1562 1563 1563 1563 1563 1564 1564 1564 1564 1564 1565 1565 1565
1539 1539 1540 1541 1542 1543 1544 1545 1546 1547 1548 1548 1549 1549 1550 1551 1552 1553 1553 1555 1555 1555 1556 1557 1557 1558 1559 1559 1560 1560 1561 1563 1561 1562 1562 1562 1563 1563 1563 1563 1563 1563 1563
1537 1538 1539 1540 1541 1542 1543 1544 1545 1546 1547 1548 1549 1549 1549 1550 1551 1552 1552 1553 1554 1555 1555 1555 1556 1556 1557 1558 1558 1560 1560 1560 1561 1561 1561 1561 1561 1562 1562 1562 1561 1561 1561
1536 1537 1538 1539 1540 1541 1542 1543 1545 1546 1547 1547 1548 1549 1549 1550 1550 1551 1552 1552 1553 1553 1553 1554 1555 1555 1556 1556 1557 1557 1558 1558 1559 1560 1561 1560 1560 1560 1560 1560 1560 1560 1560
1535 1536 1537 1538 1538 1539 1541 1542 1543 1545 1546 1547 1547 1548 1549 1549 1550 1550 1551 1551 1551 1552 1552 1552 1552 1553 1554 1555 1555 1556 1556 1556 1557 1558 1558 1559 1559 1559 1558 1559 1559 1559 1558
1533 1534 1536 1536 1537 1538 1539 1540 1542 1543 1544 1545 1546 1547 1548 1549 1549 1550 1550 1550 1550 1551 1550 1550 1551 1551 1552 1552 1553 1554 1555 1555 1555 1556 1556 1556 1557 1557 1557 1557 1557 1557 1557